Location: Binningen
(47.7924°N, 8.7261°E)
Time: 04:46:05
(UTC+00:00)

CARTOSAT-1 - Pass Details

Date: 17 May 2021
Orbit: 616 x 618 km, 97.8° (Epoch: 14 June)

Event Time Altitude Azimuth Distance (km) Brightness Sun altitude
Exits shadow 20:59:00 21° 181° (S) 1,396 4.9 -15.5°
Maximum altitude 21:01:48 64° 259° (WSW) 687 3.8 -15.8°
Drops below altitude 10° 21:06:06 10° 341° (NNW) 1,992 7.4 -16.2°
Sets 21:08:19 0° 345° (NNW) 2,902 8.5 -16.4°
